IRIDIUM 35 [-]

Last updated on Dec. 27, 2018, 2:53 a.m. UTC

1 24966U 97056B   18360.46793987  .88721880 -13700-5  43046-3 0  9994
2 24966  86.3775  83.9710 0033945 287.6790  72.2579 16.53887081112740

Satellite is not in orbit.